Regional Weather Roundup
Issued by NWS

Home | Current Version | Previous Version | Text Only | Print | Product List | Glossary Off
Versions: 1 2 3 4 5 6 7 8 9 10 11 12 13 14 15 16 17 18 19 20 21 22 23 24 25 26 27 28 29 30 31 32 33 34 35 36 37 38 39 40 41 42 43 44 45 46 47 48 49 50

000
ASUS43 KLSX 201307
RWRMO

WEATHER SUMMARY FOR MISSOURI
NATIONAL WEATHER SERVICE SPRINGFIELD MO
700 AM CST SAT DEC 20 2014

NOTE: "FAIR" INDICATES FEW OR NO CLOUDS BELOW 12,000 FEET WITH NO
       SIGNIFICANT WEATHER AND/OR OBSTRUCTIONS TO VISIBILITY.
       CURRENT SKY AND/OR WEATHER CONDITIONS ARE NOT AVAILABLE FOR
       CHILLICOTHE AND FARMINGTON.

MOZ001>031-035>038-043-044-053-054-201400-
...NORTHERN AND WESTERN MISSOURI...

CITY           SKY/WX    TMP DP  RH WIND       PRES   REMARKS
KANSAS CTY INT CLOUDY    33  31  92 S10       30.17S WCI  25
KANSAS C DTWN  CLOUDY    35  30  82 S10       30.19F WCI  27
LEE`S SUMMIT   CLOUDY    34  31  88 SW7       30.20R WCI  28
ST JOSEPH      PTCLDY    33  29  85 S9        30.15F WCI  25
CHILLICOTHE      N/A     34  32  92 CALM      30.22R
KIRKSVILLE     SNOW      33  33 100 SE6       30.20S VSB 1/4 WCI  28

$$
MOZ066>068-077>081-088>096-101>105-201400-
...SOUTHWEST MISSOURI...

CITY           SKY/WX    TMP DP  RH WIND       PRES   REMARKS
SPRINGFIELD    FOG       37  36  96 S3        30.21R VSB 1/2
JOPLIN         CLOUDY    37  35  92 SW5       30.24R

$$
MOZ032>034-039>042-045>050-055>058-069>072-201400-
...CENTRAL MISSOURI...

CITY           SKY/WX    TMP DP  RH WIND       PRES   REMARKS
COLUMBIA       CLOUDY    35  34  96 SE6       30.22R FOG
JEFFERSON CITY CLOUDY    37  34  89 SE6       30.24R
ROLLA          CLOUDY    35  33  92 S5        30.21R
SEDALIA        CLOUDY    38  37  97 W3        30.22R FOG
WHITEMAN AFB   CLOUDY    36  35  94 W5        30.21R
WARRENSBURG    CLOUDY    34  34 100 SW6       30.22R WCI  29
OSAGE BEACH    CLOUDY    37  34  87 SE3       30.22S

$$
MOZ051-052-059>065-201400-
...EAST CENTRAL MISSOURI...

CITY           SKY/WX    TMP DP  RH WIND       PRES   REMARKS
ST LOUIS INTL  CLOUDY    36  27  69 SE6       30.26R
SPIRIT OF STL  CLOUDY    35  29  78 CALM      30.26R
ST CHARLES     CLOUDY    33  31  92 E5        30.26S FOG     WCI  29

$$
MOZ072>076-082>087-097>100-106>115-201400-
...SOUTH CENTRAL AND SOUTHEAST MISSOURI...

CITY           SKY/WX    TMP DP  RH WIND       PRES   REMARKS
CAPE GIRARDEAU CLOUDY    35  30  82 E5        30.28R
FARMINGTON     CLOUDY    34  32  93 CALM      30.26R
POPLAR BLUFF   CLOUDY    37  31  78 NE3       30.28R
WEST PLAINS    CLOUDY    34  31  88 SE3       30.24R

$$



USA.gov is the U.S. government's official web portal to all federal, state and local government web resources and services.